SAST,Max TemperatureF,Mean TemperatureF,Min TemperatureF,Max Dew PointF,MeanDew PointF,Min DewpointF,Max Humidity, Mean Humidity, Min Humidity, Max Sea Level PressureIn, Mean Sea Level PressureIn, Min Sea Level PressureIn, Max VisibilityMiles, Mean VisibilityMiles, Min VisibilityMiles, Max Wind SpeedMPH, Mean Wind SpeedMPH, Max Gust SpeedMPH,PrecipitationIn, CloudCover, Events, WindDirDegrees
2013-5-1,95,76,56,57,46,39,77,43,9,30.06,29.98,29.89,19,16,12,24,7,,0.00,,,345
2013-5-2,72,62,52,55,53,48,94,72,37,30.06,30.01,29.98,12,7,6,13,4,,0.00,4,,330
2013-5-3,63,57,51,57,52,46,94,78,52,30.30,30.11,30.01,12,7,5,21,8,,0.04,6,Rain,282
2013-5-4,63,56,48,52,48,43,94,78,45,30.49,30.42,30.33,19,8,6,13,8,,0.08,4,Rain,329
2013-5-5,67,56,44,50,44,41,88,65,29,30.42,30.38,30.33,19,16,12,8,4,,0.00,,,40
2013-5-6,78,61,44,48,41,34,82,49,20,30.31,30.17,30.06,19,17,12,8,4,,0.00,,,29
2013-5-7,84,66,49,43,33,25,59,26,9,30.06,29.99,29.95,19,16,12,20,10,,0.00,,,345
2013-5-8,68,62,55,55,45,36,88,50,16,29.95,29.89,29.83,12,8,6,16,8,,0.02,4,Rain,291
2013-5-9,63,56,48,55,48,43,94,75,41,30.21,30.11,29.95,12,7,5,12,8,,0.00,4,Rain,266
2013-5-10,64,53,42,48,42,36,93,69,33,30.27,30.23,30.18,19,12,6,13,5,,0.00,1,,41
2013-5-11,70,56,42,48,42,36,87,65,25,30.26,30.20,30.15,19,13,12,9,4,,0.00,,,11
2013-5-12,76,61,46,45,40,35,72,46,18,30.19,30.13,30.06,12,12,12,7,4,,0.00,,,11
2013-5-13,69,58,46,54,44,37,94,59,31,30.18,30.14,30.09,12,9,2,9,5,,0.00,0,Fog,57
2013-5-14,71,58,45,57,49,42,94,77,44,30.06,29.96,29.91,19,9,0,9,4,,0.00,1,Fog,289
2013-5-15,68,58,49,57,51,45,94,79,38,30.04,29.97,29.92,12,7,6,14,6,,0.00,4,,282
2013-5-16,65,56,48,57,52,46,94,82,56,30.24,30.04,29.95,19,9,6,12,5,,0.01,4,Rain,280
2013-5-17,65,56,46,52,49,43,94,77,43,30.45,30.36,30.24,19,9,6,9,6,,0.00,4,Rain,321
2013-5-18,67,55,43,54,46,40,93,74,41,30.43,30.33,30.18,19,14,12,9,4,,0.00,,,57
2013-5-19,88,68,47,52,48,43,87,56,20,30.18,30.02,29.93,19,14,12,9,4,,0.02,,,348
2013-5-20,74,64,55,59,56,52,100,74,52,30.04,29.98,29.95,12,7,0,9,5,,0.01,3,Fog-Rain,228
2013-5-21,72,64,55,61,58,55,95,85,61,30.04,30.00,29.95,12,6,0,10,4,,0.01,5,Fog,84
2013-5-22,75,67,59,59,57,53,96,71,48,30.06,29.97,29.89,19,7,0,21,8,,0.00,3,Fog-Rain,48
2013-5-23,71,63,55,58,55,52,94,77,53,30.15,30.06,29.98,12,7,6,15,8,,0.00,4,,293
2013-5-24,68,58,48,55,52,46,97,82,49,30.15,30.08,30.01,19,10,0,10,4,,0.01,3,Fog,74
2013-5-25,71,60,50,56,51,45,94,74,53,29.99,29.95,29.89,19,12,6,10,4,,0.00,,,354
2013-5-26,63,58,52,56,51,48,82,75,65,29.92,29.87,29.80,19,8,6,8,4,,0.04,6,Rain,328
2013-5-27,71,63,53,55,49,42,94,65,24,30.01,29.89,29.80,19,8,4,22,10,,0.00,3,Rain,276
2013-5-28,71,60,48,55,46,41,94,66,30,30.06,30.01,29.98,19,8,6,18,7,,0.00,3,,314
2013-5-29,74,61,48,50,42,34,88,55,16,30.06,29.92,29.83,19,11,6,14,5,,0.00,1,,351
2013-5-30,74,64,54,55,46,36,88,56,29,30.04,29.91,29.83,12,8,6,21,8,,0.00,5,,303
2013-5-31,72,60,48,52,48,43,94,71,40,30.04,29.91,29.74,19,10,6,9,5,,0.00,2,,38